| time (UTC) | temp C | wind direction | speed KPH | gust KPH | rain 1hr cm | rain 24hr cm | rain mn cm | humidity % | barometer mb |
| 20260505184146 | 26 | 29 | 11.3 | 17.7 | 0.00 | 0.00 | 0.00 | 38 | 1007.2 |
| 20260505183646 | 26 | 321 | 6.4 | 12.9 | 0.00 | 0.00 | 0.00 | 37 | 1007.0 |
| 20260505183144 | 26 | 167 | 9.7 | 14.5 | 0.00 | 0.00 | 0.00 | 37 | 1007.3 |
| 20260505182643 | 27 | 272 | 11.3 | 20.9 | 0.00 | 0.00 | 0.00 | 36 | 1007.3 |
| 20260505182245 | 26 | 161 | 9.7 | 17.7 | 0.00 | 0.00 | 0.00 | 41 | 1007.2 |
| 20260505181644 | 26 | 290 | 17.7 | 32.2 | 0.00 | 0.00 | 0.00 | 38 | 1007.0 |
| 20260505181144 | 26 | 9 | 6.4 | 11.3 | 0.00 | 0.00 | 0.00 | 37 | 1007.3 |
| 20260505180644 | 26 | 300 | 11.3 | 20.9 | 0.00 | 0.00 | 0.00 | 38 | 1007.7 |
| 20260505175643 | 25 | 139 | 9.7 | 14.5 | 0.00 | 0.00 | 0.00 | 46 | 1007.7 |
| 20260505175142 | 25 | 216 | 11.3 | 16.1 | 0.00 | 0.00 | 0.00 | 43 | 1007.7 |
| 20260505174641 | 25 | 159 | 9.7 | 16.1 | 0.00 | 0.00 | 0.00 | 39 | 1007.7 |
| 20260505174142 | 25 | 287 | 8.0 | 14.5 | 0.00 | 0.00 | 0.00 | 37 | 1007.7 |
| 20260505173641 | 26 | 277 | 8.0 | 12.9 | 0.00 | 0.00 | 0.00 | 38 | 1008.2 |
| 20260505173141 | 26 | 20 | 14.5 | 32.2 | 0.00 | 0.00 | 0.00 | 37 | 1008.0 |
| 20260505172640 | 26 | 351 | 14.5 | 17.7 | 0.00 | 0.00 | 0.00 | 38 | 1008.0 |
| 20260505172139 | 26 | 162 | 16.1 | 20.9 | 0.00 | 0.00 | 0.00 | 39 | 1008.0 |
| 20260505171640 | 26 | 282 | 11.3 | 25.7 | 0.00 | 0.00 | 0.00 | 40 | 1008.0 |
| 20260505171139 | 25 | 352 | 12.9 | 24.1 | 0.00 | 0.00 | 0.00 | 38 | 1008.0 |
| 20260505160636 | 23 | 313 | 4.8 | 8.0 | 0.00 | 0.00 | 0.00 | 50 | 1009.1 |
| 20260505160134 | 23 | 147 | 17.7 | 22.5 | 0.00 | 0.00 | 0.00 | 51 | 1008.7 |
| 20260505153132 | 22 | 161 | 8.0 | 12.9 | 0.00 | 0.00 | 0.00 | 56 | 1009.8 |
| 20260505152632 | 22 | 187 | 12.9 | 16.1 | 0.00 | 0.00 | 0.00 | 55 | 1009.8 |
| 20260505152133 | 21 | 165 | 14.5 | 22.5 | 0.00 | 0.00 | 0.00 | 58 | 1009.8 |
| 20260505151632 | 21 | 146 | 16.1 | 20.9 | 0.00 | 0.00 | 0.00 | 58 | 1009.8 |
| 20260505151131 | 20 | 160 | 14.5 | 14.5 | 0.00 | 0.00 | 0.00 | 59 | 1010.1 |
| 20260505150630 | 20 | 227 | 11.3 | 14.5 | 0.00 | 0.00 | 0.00 | 58 | 1009.8 |
| 20260505150129 | 20 | 125 | 8.0 | 12.9 | 0.00 | 0.00 | 0.00 | 60 | 1010.1 |
| 20260505140627 | 17 | 120 | 9.7 | 11.3 | 0.00 | 0.00 | 0.00 | 68 | 1010.3 |
| 20260505130122 | 14 | 146 | 11.3 | 16.1 | 0.00 | 0.00 | 0.00 | 76 | 1010.1 |
| 20260505124621 | 13 | 163 | 14.5 | 17.7 | 0.00 | 0.00 | 0.00 | 79 | 1010.3 |
| 20260505124120 | 12 | 170 | 8.0 | 11.3 | 0.00 | 0.00 | 0.00 | 80 | 1010.1 |
| 20260505123720 | 12 | 173 | 9.7 | 12.9 | 0.00 | 0.00 | 0.00 | 81 | 1010.1 |
| 20260505123121 | 12 | 123 | 12.9 | 22.5 | 0.00 | 0.00 | 0.00 | 81 | 1010.1 |
| 20260505122119 | 11 | 146 | 14.5 | 20.9 | 0.00 | 0.00 | 0.00 | 84 | 1010.1 |
| 20260505121622 | 11 | 142 | 12.9 | 17.7 | 0.00 | 0.00 | 0.00 | 86 | 1010.1 |
| 20260505121120 | 10 | 192 | 4.8 | 4.8 | 0.00 | 0.00 | 0.00 | 87 | 1010.1 |
| 20260505120619 | 10 | 206 | 8.0 | 11.3 | 0.00 | 0.00 | 0.00 | 87 | 1010.1 |
| 20260505120118 | 11 | 213 | 8.0 | 11.3 | 0.00 | 0.00 | 0.00 | 86 | 1010.3 |
| 20260505115619 | 11 | 161 | 11.3 | 14.5 | 0.00 | 0.00 | 0.00 | 85 | 1010.1 |
| 20260505115118 | 11 | 57 | 4.8 | 4.8 | 0.00 | 0.00 | 0.00 | 84 | 1010.1 |
| 20260505114617 | 11 | 143 | 6.4 | 11.3 | 0.00 | 0.00 | 0.00 | 83 | 1010.5 |
| 20260505113619 | 11 | 276 | 3.2 | 3.2 | 0.00 | 0.00 | 0.00 | 83 | 1010.5 |
| 20260505112616 | 11 | 141 | 12.9 | 16.1 | 0.00 | 0.00 | 0.00 | 84 | 1010.7 |
| 20260505112145 | 11 | 121 | 6.4 | 9.7 | 0.00 | 0.00 | 0.00 | 85 | 1010.5 |
| 20260505111646 | 10 | 90 | 8.0 | 16.1 | 0.00 | 0.00 | 0.00 | 86 | 1010.1 |
| 20260505110645 | 10 | 156 | 8.0 | 9.7 | 0.00 | 0.00 | 0.00 | 86 | 1010.1 |
| 20260505110144 | 10 | 186 | 8.0 | 11.3 | 0.00 | 0.00 | 0.00 | 87 | 1010.1 |
| 20260505102141 | 8 | 107 | 6.4 | 9.7 | 0.00 | 0.00 | 0.00 | 91 | 1009.8 |
| 20260505101642 | 8 | 173 | 8.0 | 11.3 | 0.00 | 0.00 | 0.00 | 90 | 1009.8 |
| 20260505101142 | 8 | 59 | 4.8 | 8.0 | 0.00 | 0.00 | 0.00 | 90 | 1009.4 |
| 20260505100641 | 8 | 9 | 4.8 | 4.8 | 0.00 | 0.00 | 0.00 | 90 | 1009.6 |
| 20260505100140 | 8 | 38 | 4.8 | 4.8 | 0.00 | 0.00 | 0.00 | 90 | 1009.8 |
| 20260505095641 | 8 | 19 | 3.2 | 4.8 | 0.00 | 0.00 | 0.00 | 90 | 1009.8 |
| 20260505095140 | 8 | 126 | 4.8 | 9.7 | 0.00 | 0.00 | 0.00 | 90 | 1009.8 |
| 20260505094639 | 8 | 86 | 4.8 | 8.0 | 0.00 | 0.00 | 0.00 | 90 | 1009.8 |
| 20260505094139 | 8 | 21 | 3.2 | 4.8 | 0.00 | 0.00 | 0.00 | 89 | 1009.8 |
| 20260505093640 | 9 | 59 | 4.8 | 4.8 | 0.00 | 0.00 | 0.00 | 88 | 1009.8 |
| 20260505093139 | 9 | 259 | 8.0 | 11.3 | 0.00 | 0.00 | 0.00 | 87 | 1009.6 |
| 20260505092640 | 9 | 319 | 3.2 | 3.2 | 0.00 | 0.00 | 0.00 | 87 | 1009.4 |
| 20260505092140 | 9 | 267 | 8.0 | 9.7 | 0.00 | 0.00 | 0.00 | 87 | 1009.8 |
| 20260505091639 | 9 | 18 | 3.2 | 3.2 | 0.00 | 0.00 | 0.00 | 87 | 1009.8 |
| 20260505091138 | 9 | 332 | 3.2 | 3.2 | 0.00 | 0.00 | 0.00 | 87 | 1009.8 |
| 20260505090638 | 9 | 141 | 8.0 | 9.7 | 0.00 | 0.00 | 0.00 | 86 | 1009.8 |
| 20260505090136 | 10 | 253 | 4.8 | 12.9 | 0.00 | 0.00 | 0.00 | 86 | 1010.0 |
| 20260505085639 | 10 | 342 | 3.2 | 8.0 | 0.00 | 0.00 | 0.00 | 85 | 1009.8 |
| 20260505085136 | 10 | 224 | 8.0 | 12.9 | 0.00 | 0.00 | 0.00 | 85 | 1009.8 |
| 20260505084636 | 10 | 317 | 1.6 | 3.2 | 0.00 | 0.00 | 0.00 | 85 | 1010.0 |
| 20260505084136 | 10 | 21 | 3.2 | 3.2 | 0.00 | 0.00 | 0.00 | 85 | 1010.1 |
| 20260505083135 | 10 | 356 | 1.6 | 3.2 | 0.00 | 0.00 | 0.00 | 85 | 1010.1 |
| 20260505082734 | 10 | 8 | 3.2 | 3.2 | 0.00 | 0.00 | 0.00 | 85 | 1010.1 |
| 20260505082134 | 10 | 360 | 1.6 | 3.2 | 0.00 | 0.00 | 0.00 | 85 | 1010.1 |
| 20260505081635 | 10 | 275 | 3.2 | 4.8 | 0.00 | 0.00 | 0.00 | 85 | 1010.1 |
| 20260505080635 | 10 | 323 | 4.8 | 8.0 | 0.00 | 0.00 | 0.00 | 85 | 1009.8 |
| 20260505080133 | 10 | 37 | 4.8 | 4.8 | 0.00 | 0.00 | 0.00 | 84 | 1009.8 |
| 20260505075634 | 10 | 203 | 4.8 | 4.8 | 0.00 | 0.00 | 0.00 | 84 | 1010.0 |
| 20260505075134 | 10 | 3 | 4.8 | 4.8 | 0.00 | 0.00 | 0.00 | 84 | 1010.1 |
| 20260505074734 | 10 | 88 | 4.8 | 8.0 | 0.00 | 0.00 | 0.00 | 83 | 1010.1 |
| 20260505074137 | 10 | 205 | 6.4 | 12.9 | 0.00 | 0.00 | 0.00 | 83 | 1010.1 |
| 20260505073632 | 10 | 334 | 1.6 | 3.2 | 0.00 | 0.00 | 0.00 | 83 | 1010.1 |
| 20260505073131 | 10 | 0 | 1.6 | 3.2 | 0.00 | 0.00 | 0.00 | 82 | 1010.1 |
| 20260505072630 | 10 | 358 | 1.6 | 3.2 | 0.00 | 0.00 | 0.00 | 82 | 1010.1 |
| 20260505072130 | 10 | 350 | 4.8 | 4.8 | 0.00 | 0.00 | 0.00 | 82 | 1010.1 |
| 20260505071629 | 10 | 183 | 4.8 | 8.0 | 0.00 | 0.00 | 0.00 | 82 | 1010.1 |
| 20260505071130 | 10 | 25 | 3.2 | 4.8 | 0.00 | 0.00 | 0.00 | 83 | 1010.3 |
| 20260505070629 | 10 | 91 | 3.2 | 4.8 | 0.00 | 0.00 | 0.00 | 82 | 1010.5 |
| 20260505070128 | 10 | 51 | 3.2 | 4.8 | 0.00 | 0.00 | 0.00 | 82 | 1010.5 |
| 20260505065629 | 10 | 133 | 4.8 | 8.0 | 0.00 | 0.00 | 0.00 | 81 | 1010.1 |
| 20260505065129 | 10 | 6 | 4.8 | 8.0 | 0.00 | 0.00 | 0.00 | 81 | 1010.5 |
| 20260505064628 | 10 | 58 | 4.8 | 8.0 | 0.00 | 0.00 | 0.00 | 81 | 1010.5 |
| 20260505064127 | 10 | 193 | 6.4 | 9.7 | 0.00 | 0.00 | 0.00 | 80 | 1010.1 |
| 20260505063125 | 10 | 128 | 4.8 | 8.0 | 0.00 | 0.00 | 0.00 | 80 | 1010.5 |
| 20260505062126 | 10 | 131 | 4.8 | 4.8 | 0.00 | 0.00 | 0.00 | 80 | 1010.5 |
| 20260505061625 | 10 | 145 | 8.0 | 16.1 | 0.00 | 0.00 | 0.00 | 79 | 1010.5 |
| 20260505061124 | 10 | 137 | 9.7 | 11.3 | 0.00 | 0.00 | 0.00 | 79 | 1010.5 |
| 20260505060627 | 10 | 144 | 4.8 | 11.3 | 0.00 | 0.00 | 0.00 | 79 | 1010.5 |
| 20260505055725 | 10 | 183 | 11.3 | 14.5 | 0.00 | 0.00 | 0.00 | 78 | 1010.5 |
| 20260505055125 | 10 | 188 | 9.7 | 12.9 | 0.00 | 0.00 | 0.00 | 79 | 1010.5 |
| 20260505054624 | 10 | 99 | 6.4 | 9.7 | 0.00 | 0.00 | 0.00 | 80 | 1010.5 |
| 20260505054123 | 10 | 34 | 4.8 | 4.8 | 0.00 | 0.00 | 0.00 | 80 | 1010.5 |
| 20260505053624 | 10 | 71 | 9.7 | 11.3 | 0.00 | 0.00 | 0.00 | 80 | 1010.5 |
| 20260505053121 | 10 | 45 | 4.8 | 8.0 | 0.00 | 0.00 | 0.00 | 80 | 1010.5 |
| 20260505052622 | 10 | 357 | 3.2 | 3.2 | 0.00 | 0.00 | 0.00 | 79 | 1010.5 |
| 20260505052122 | 10 | 18 | 6.4 | 9.7 | 0.00 | 0.00 | 0.00 | 79 | 1010.5 |
| 20260505051621 | 10 | 61 | 6.4 | 8.0 | 0.00 | 0.00 | 0.00 | 79 | 1010.5 |
| 20260505051122 | 10 | 70 | 3.2 | 8.0 | 0.00 | 0.00 | 0.00 | 79 | 1010.5 |
| 20260505050121 | 10 | 27 | 3.2 | 4.8 | 0.00 | 0.00 | 0.00 | 78 | 1010.9 |
| 20260505041117 | 11 | 11 | 3.2 | 4.8 | 0.00 | 0.00 | 0.00 | 74 | 1010.5 |
| 20260505040618 | 11 | 137 | 6.4 | 9.7 | 0.00 | 0.00 | 0.00 | 74 | 1010.5 |
| 20260505040117 | 11 | 13 | 4.8 | 8.0 | 0.00 | 0.00 | 0.00 | 73 | 1010.5 |
| 20260505035616 | 11 | 59 | 6.4 | 9.7 | 0.00 | 0.00 | 0.00 | 73 | 1010.5 |
| 20260505035145 | 11 | 50 | 4.8 | 8.0 | 0.00 | 0.00 | 0.00 | 72 | 1010.5 |
| 20260505034644 | 12 | 128 | 9.7 | 16.1 | 0.00 | 0.00 | 0.00 | 72 | 1010.5 |
| 20260505034145 | 12 | 48 | 6.4 | 8.0 | 0.00 | 0.00 | 0.00 | 71 | 1010.3 |
| 20260505033644 | 12 | 120 | 6.4 | 9.7 | 0.00 | 0.00 | 0.00 | 71 | 1010.1 |
| 20260505033143 | 12 | 116 | 6.4 | 14.5 | 0.00 | 0.00 | 0.00 | 70 | 1010.1 |
| 20260505032645 | 12 | 113 | 6.4 | 9.7 | 0.00 | 0.00 | 0.00 | 70 | 1010.1 |
| 20260505032144 | 12 | 218 | 8.0 | 9.7 | 0.00 | 0.00 | 0.00 | 69 | 1010.1 |
| 20260505031643 | 12 | 57 | 6.4 | 9.7 | 0.00 | 0.00 | 0.00 | 68 | 1010.1 |
| 20260505031142 | 12 | 69 | 4.8 | 8.0 | 0.00 | 0.00 | 0.00 | 68 | 1010.5 |
| 20260505030643 | 12 | 42 | 3.2 | 4.8 | 0.00 | 0.00 | 0.00 | 68 | 1010.5 |
| 20260505030143 | 12 | 71 | 4.8 | 4.8 | 0.00 | 0.00 | 0.00 | 67 | 1010.1 |
| 20260505025642 | 13 | 40 | 4.8 | 4.8 | 0.00 | 0.00 | 0.00 | 66 | 1010.3 |
| 20260505025143 | 13 | 79 | 4.8 | 8.0 | 0.00 | 0.00 | 0.00 | 65 | 1010.5 |
| 20260505024642 | 13 | 172 | 8.0 | 11.3 | 0.00 | 0.00 | 0.00 | 64 | 1010.5 |
| 20260505024141 | 13 | 90 | 8.0 | 11.3 | 0.00 | 0.00 | 0.00 | 63 | 1010.5 |
| 20260505023641 | 13 | 114 | 9.7 | 11.3 | 0.00 | 0.00 | 0.00 | 63 | 1010.5 |
| 20260505023141 | 13 | 69 | 4.8 | 8.0 | 0.00 | 0.00 | 0.00 | 62 | 1010.5 |
| 20260505022641 | 13 | 49 | 6.4 | 11.3 | 0.00 | 0.00 | 0.00 | 61 | 1010.5 |
| 20260505022140 | 13 | 83 | 6.4 | 9.7 | 0.00 | 0.00 | 0.00 | 60 | 1010.5 |
| 20260505021639 | 13 | 79 | 6.4 | 8.0 | 0.00 | 0.00 | 0.00 | 59 | 1010.5 |
| 20260505021139 | 14 | 38 | 3.2 | 8.0 | 0.00 | 0.00 | 0.00 | 58 | 1010.5 |
| 20260505020743 | 14 | 80 | 6.4 | 9.7 | 0.00 | 0.00 | 0.00 | 57 | 1010.5 |
| 20260505020139 | 14 | 39 | 4.8 | 8.0 | 0.00 | 0.00 | 0.00 | 56 | 1010.5 |
| 20260505015638 | 14 | 306 | 4.8 | 8.0 | 0.00 | 0.00 | 0.00 | 55 | 1010.5 |
| 20260505015138 | 13 | 115 | 8.0 | 11.3 | 0.00 | 0.00 | 0.00 | 57 | 1010.3 |
| 20260505014639 | 14 | 343 | 1.6 | 3.2 | 0.00 | 0.00 | 0.00 | 55 | 1010.1 |
| 20260505014138 | 15 | 340 | 1.6 | 1.6 | 0.00 | 0.00 | 0.00 | 55 | 1010.1 |
| 20260505013637 | 15 | 348 | 1.6 | 3.2 | 0.00 | 0.00 | 0.00 | 54 | 1010.1 |
| 20260505013136 | 14 | 335 | 1.6 | 1.6 | 0.00 | 0.00 | 0.00 | 55 | 1010.1 |
| 20260505012635 | 14 | 329 | 1.6 | 1.6 | 0.00 | 0.00 | 0.00 | 54 | 1010.1 |
| 20260505012136 | 15 | 334 | 1.6 | 1.6 | 0.00 | 0.00 | 0.00 | 55 | 1010.1 |
| 20260505011635 | 15 | 344 | 1.6 | 3.2 | 0.00 | 0.00 | 0.00 | 53 | 1010.1 |
| 20260505011135 | 15 | 336 | 0.0 | 1.6 | 0.00 | 0.00 | 0.00 | 52 | 1010.1 |
| 20260505010634 | 15 | 316 | 1.6 | 1.6 | 0.00 | 0.00 | 0.00 | 51 | 1010.1 |
| 20260505010135 | 16 | 355 | 1.6 | 3.2 | 0.00 | 0.00 | 0.00 | 50 | 1010.0 |
| 20260505005634 | 16 | 344 | 1.6 | 1.6 | 0.00 | 0.00 | 0.00 | 50 | 1009.8 |
| 20260505005134 | 15 | 4 | 3.2 | 4.8 | 0.00 | 0.00 | 0.00 | 50 | 1010.1 |
| 20260505004634 | 15 | 19 | 3.2 | 3.2 | 0.00 | 0.00 | 0.00 | 50 | 1009.8 |
| 20260505004134 | 15 | 331 | 0.0 | 1.6 | 0.00 | 0.00 | 0.00 | 51 | 1009.8 |
| 20260505003633 | 16 | 334 | 0.0 | 1.6 | 0.00 | 0.00 | 0.00 | 51 | 1009.8 |
| 20260505003132 | 16 | 336 | 1.6 | 1.6 | 0.00 | 0.00 | 0.00 | 50 | 1009.8 |
| 20260505002632 | 16 | 324 | 0.0 | 1.6 | 0.00 | 0.00 | 0.00 | 49 | 1009.6 |
| 20260505002133 | 16 | 0.0 | 0.0 | 0.00 | 0.00 | 0.00 | 49 | 1009.4 | |
| 20260505001632 | 16 | 0.0 | 0.0 | 0.00 | 0.00 | 0.00 | 49 | 1009.4 | |
| 20260505001131 | 16 | 343 | 1.6 | 3.2 | 0.00 | 0.00 | 0.00 | 49 | 1009.4 |
| 20260505000630 | 16 | 332 | 0.0 | 1.6 | 0.00 | 0.00 | 0.00 | 49 | 1009.4 |
| 20260505000129 | 16 | 0.0 | 0.0 | 0.00 | 0.00 | 0.00 | 48 | 1009.3 | |
| 20260504235629 | 17 | 344 | 1.6 | 3.2 | 0.00 | 0.00 | 0.00 | 49 | 1009.1 |
| 20260504235130 | 17 | 337 | 1.6 | 1.6 | 0.00 | 0.00 | 0.00 | 48 | 1009.1 |
| 20260504234629 | 17 | 332 | 0.0 | 1.6 | 0.00 | 0.00 | 0.00 | 47 | 1009.1 |
| 20260504234128 | 17 | 0.0 | 0.0 | 0.00 | 0.00 | 0.00 | 46 | 1009.1 | |
| 20260504233629 | 17 | 326 | 0.0 | 1.6 | 0.00 | 0.00 | 0.00 | 46 | 1009.1 |
| 20260504233129 | 17 | 313 | 1.6 | 1.6 | 0.00 | 0.00 | 0.00 | 46 | 1008.7 |
| 20260504232628 | 17 | 347 | 1.6 | 3.2 | 0.00 | 0.00 | 0.00 | 46 | 1008.7 |
| 20260504232127 | 18 | 314 | 1.6 | 1.6 | 0.00 | 0.00 | 0.00 | 45 | 1008.7 |
| 20260504231626 | 18 | 318 | 1.6 | 3.2 | 0.00 | 0.00 | 0.00 | 45 | 1008.7 |
| 20260504231127 | 18 | 346 | 1.6 | 3.2 | 0.00 | 0.00 | 0.00 | 45 | 1008.7 |
| 20260504230627 | 18 | 330 | 0.0 | 3.2 | 0.00 | 0.00 | 0.00 | 45 | 1008.7 |
| 20260504230126 | 18 | 324 | 0.0 | 1.6 | 0.00 | 0.00 | 0.00 | 44 | 1008.7 |
| 20260504225625 | 18 | 320 | 0.0 | 1.6 | 0.00 | 0.00 | 0.00 | 44 | 1008.7 |
| 20260504225126 | 18 | 311 | 0.0 | 1.6 | 0.00 | 0.00 | 0.00 | 44 | 1008.4 |
| 20260504224625 | 18 | 97 | 1.6 | 4.8 | 0.00 | 0.00 | 0.00 | 44 | 1008.4 |
| 20260504224225 | 18 | 286 | 6.4 | 9.7 | 0.00 | 0.00 | 0.00 | 43 | 1008.4 |
| 20260504223625 | 18 | 297 | 4.8 | 9.7 | 0.00 | 0.00 | 0.00 | 44 | 1008.7 |
| 20260504223124 | 18 | 129 | 6.4 | 9.7 | 0.00 | 0.00 | 0.00 | 44 | 1008.4 |
| 20260504222624 | 19 | 350 | 3.2 | 3.2 | 0.00 | 0.00 | 0.00 | 43 | 1008.4 |
| 20260504222124 | 19 | 342 | 4.8 | 9.7 | 0.00 | 0.00 | 0.00 | 43 | 1008.4 |
| 20260504221623 | 18 | 337 | 1.6 | 3.2 | 0.00 | 0.00 | 0.00 | 42 | 1008.4 |
| 20260504221222 | 19 | 184 | 6.4 | 12.9 | 0.00 | 0.00 | 0.00 | 42 | 1008.2 |
| 20260504220724 | 18 | 314 | 6.4 | 9.7 | 0.00 | 0.00 | 0.00 | 43 | 1008.4 |
| 20260504220222 | 19 | 353 | 4.8 | 8.0 | 0.00 | 0.00 | 0.00 | 42 | 1008.0 |
| 20260504215621 | 20 | 332 | 4.8 | 8.0 | 0.00 | 0.00 | 0.00 | 41 | 1008.0 |
| 20260504215120 | 19 | 316 | 1.6 | 3.2 | 0.00 | 0.00 | 0.00 | 42 | 1008.2 |
| 20260504214622 | 20 | 306 | 8.0 | 11.3 | 0.00 | 0.00 | 0.00 | 41 | 1008.0 |
| 20260504214121 | 20 | 319 | 4.8 | 8.0 | 0.00 | 0.00 | 0.00 | 40 | 1008.0 |
| 20260504213219 | 20 | 342 | 8.0 | 11.3 | 0.00 | 0.00 | 0.00 | 41 | 1008.0 |
| 20260504212121 | 20 | 331 | 6.4 | 11.3 | 0.00 | 0.00 | 0.00 | 41 | 1008.4 |
| 20260504211619 | 20 | 355 | 14.5 | 22.5 | 0.00 | 0.00 | 0.00 | 41 | 1008.4 |
| 20260504211118 | 20 | 306 | 3.2 | 4.8 | 0.00 | 0.00 | 0.00 | 41 | 1008.4 |
| 20260504210619 | 19 | 309 | 8.0 | 16.1 | 0.00 | 0.00 | 0.00 | 42 | 1008.6 |
| 20260504210118 | 20 | 321 | 6.4 | 14.5 | 0.00 | 0.00 | 0.00 | 42 | 1008.6 |
| 20260504205618 | 20 | 12 | 1.6 | 1.6 | 0.00 | 0.00 | 0.00 | 41 | 1008.4 |
| 20260504205117 | 19 | 312 | 12.9 | 20.9 | 0.00 | 0.00 | 0.00 | 42 | 1008.4 |
| 20260504204616 | 18 | 299 | 8.0 | 11.3 | 0.00 | 0.00 | 0.00 | 43 | 1008.7 |
| 20260504204117 | 19 | 323 | 9.7 | 16.1 | 0.00 | 0.00 | 0.00 | 42 | 1008.4 |
| 20260504203616 | 19 | 325 | 6.4 | 8.0 | 0.00 | 0.00 | 0.00 | 43 | 1008.7 |
| 20260504203120 | 19 | 159 | 12.9 | 22.5 | 0.00 | 0.00 | 0.00 | 42 | 1008.7 |
| 20260504202648 | 19 | 8 | 6.4 | 12.9 | 0.00 | 0.00 | 0.00 | 43 | 1008.4 |
| 20260504202149 | 18 | 330 | 8.0 | 11.3 | 0.00 | 0.00 | 0.00 | 42 | 1008.4 |
| 20260504201645 | 19 | 292 | 6.4 | 11.3 | 0.00 | 0.00 | 0.00 | 42 | 1008.6 |
| 20260504201144 | 18 | 303 | 9.7 | 11.3 | 0.00 | 0.00 | 0.00 | 43 | 1008.7 |
| 20260504200643 | 18 | 357 | 3.2 | 3.2 | 0.00 | 0.00 | 0.00 | 44 | 1008.7 |
| 20260504200145 | 19 | 350 | 4.8 | 11.3 | 0.00 | 0.00 | 0.00 | 42 | 1008.6 |
| 20260504195644 | 18 | 319 | 4.8 | 8.0 | 0.00 | 0.00 | 0.00 | 44 | 1008.7 |
| 20260504195143 | 20 | 2 | 8.0 | 9.7 | 0.00 | 0.00 | 0.00 | 42 | 1008.7 |
| 20260504194144 | 20 | 355 | 9.7 | 12.9 | 0.00 | 0.00 | 0.00 | 42 | 1008.6 |
| 20260504193142 | 18 | 292 | 8.0 | 16.1 | 0.00 | 0.00 | 0.00 | 42 | 1008.7 |
| 20260504192641 | 18 | 339 | 6.4 | 12.9 | 0.00 | 0.00 | 0.00 | 44 | 1008.7 |
| 20260504192142 | 18 | 335 | 6.4 | 14.5 | 0.00 | 0.00 | 0.00 | 43 | 1009.1 |
| 20260504191642 | 18 | 3 | 3.2 | 4.8 | 0.00 | 0.00 | 0.00 | 44 | 1008.7 |
| 20260504191141 | 18 | 302 | 8.0 | 16.1 | 0.00 | 0.00 | 0.00 | 43 | 1009.1 |
| 20260504190640 | 18 | 301 | 4.8 | 9.7 | 0.00 | 0.00 | 0.00 | 43 | 1008.7 |
| 20260504185640 | 18 | 304 | 12.9 | 22.5 | 0.00 | 0.00 | 0.00 | 43 | 1008.7 |
| 20260504185140 | 18 | 238 | 6.4 | 9.7 | 0.00 | 0.00 | 0.00 | 44 | 1008.7 |
| 20260504184639 | 17 | 298 | 6.4 | 11.3 | 0.00 | 0.00 | 0.00 | 44 | 1008.7 |
| 20260504184238 | 17 | 301 | 6.4 | 9.7 | 0.00 | 0.00 | 0.00 | 44 | 1008.7 |